Location: Simi Valley
(34.2690°N, 118.7810°W)
Time: 21:54:19
(UTC-07:00)

SAR-Lupe-1 - Visible Passes

Search period start: 30 September 2016 00:00
Search period end: 10 October 2016 00:00
Orbit: 481 x 485 km, 98.2° (Epoch: 28 January)

Date Brightness Start Highest point End Pass type
(mag) Time Alt. Az. Time Alt. Az. Time Alt. Az.
30 Sep 6.9 20:21:46 10° SW 20:24:18 18° W 20:26:51 10° NW visible
01 Oct 5.3 19:55:01 10° S 19:58:24 42° W 20:01:48 10° NNW visible
02 Oct 3.9 19:29:02 10° SSE 19:32:34 75° ENE 19:36:08 10° N visible
03 Oct 4.9 19:03:42 10° SE 19:06:50 30° ENE 19:10:00 10° N visible
03 Oct 7.4 20:38:46 10° WSW 20:40:09 12° W 20:41:31 10° WNW visible
04 Oct 6.3 20:11:09 10° SSW 20:14:11 26° W 20:17:14 10° NW visible
05 Oct 4.4 19:44:47 10° S 19:48:18 65° WSW 19:51:51 10° NNW visible
06 Oct 4.2 19:19:05 10° SSE 19:22:30 48° ENE 19:25:58 10° N visible
07 Oct 5.3 18:54:04 10° ESE 18:56:48 21° ENE 18:59:33 10° NNE visible
07 Oct 7.0 20:27:34 10° SW 20:29:58 17° W 20:32:23 10° NW visible
08 Oct 5.5 20:00:42 10° S 20:04:02 39° W 20:07:23 10° NNW visible
09 Oct 3.9 19:34:38 10° SSE 19:38:10 82° ENE 19:41:45 10° N visible
